EDT,Max TemperatureF,Mean TemperatureF,Min TemperatureF,Max Dew PointF,MeanDew PointF,Min DewpointF,Max Humidity, Mean Humidity, Min Humidity, Max Sea Level PressureIn, Mean Sea Level PressureIn, Min Sea Level PressureIn, Max VisibilityMiles, Mean VisibilityMiles, Min VisibilityMiles, Max Wind SpeedMPH, Mean Wind SpeedMPH, Max Gust SpeedMPH,PrecipitationIn, CloudCover, Events, WindDirDegrees
2012-10-1,62,46,32,41,36,30,93,70,34,29.98,29.93,29.88,10,10,10,7,1,,0.00,0,,272
2012-10-2,69,54,41,52,45,38,97,76,44,30.00,29.93,29.88,10,10,10,8,1,,0.00,1,,353
2012-10-3,66,52,39,57,50,37,100,89,65,30.03,30.00,29.98,10,8,1,8,1,,0.07,5,Rain,164
2012-10-4,71,62,55,56,54,44,100,86,53,30.00,29.95,29.88,10,7,2,24,8,31,0.11,6,Rain,230
2012-10-5,54,48,43,42,35,32,74,65,45,29.97,29.92,29.88,10,10,10,21,15,31,0.00,5,Rain,256
2012-10-6,45,39,34,37,34,28,96,84,60,30.12,29.93,29.82,10,9,4,15,9,25,0.18,7,Rain-Snow,288
2012-10-7,44,38,30,36,33,28,100,88,62,30.13,30.09,30.04,10,9,2,16,3,20,0.04,6,Rain-Snow,239
2012-10-8,52,42,32,31,27,25,78,57,39,30.11,30.05,29.97,10,10,10,17,10,26,0.00,3,,203
2012-10-9,59,50,39,45,39,28,100,75,49,29.93,29.79,29.70,10,9,4,26,15,39,0.19,7,Rain,228
2012-10-10,42,37,33,38,35,25,100,92,67,30.07,29.84,29.71,10,8,1,17,10,25,0.27,8,Rain-Snow,259
2012-10-11,43,36,30,40,34,26,100,87,65,30.17,29.98,29.86,10,8,2,25,9,30,0.19,7,Rain-Snow,232
2012-10-12,45,36,28,32,28,23,96,76,42,30.45,30.35,30.14,10,10,6,10,3,,0.02,3,Rain-Snow,212
2012-10-13,48,38,30,47,36,23,97,87,64,30.32,30.05,29.80,10,7,2,16,9,21,0.66,6,Rain,182
2012-10-14,63,53,43,59,52,42,100,96,82,29.80,29.54,29.29,10,4,0,23,6,32,1.20,8,Fog-Rain,177
2012-10-15,43,40,39,41,37,33,97,88,76,29.93,29.69,29.39,10,8,3,14,9,26,0.43,8,Rain,310
2012-10-16,54,42,30,40,36,28,96,79,59,29.95,29.84,29.69,10,10,10,12,3,,0.00,3,Rain,175
2012-10-17,69,56,43,52,45,38,93,69,47,29.66,29.55,29.47,10,10,10,17,10,29,0.00,3,Rain,171
2012-10-18,57,50,42,54,48,38,94,88,74,29.63,29.41,29.29,10,10,2,23,14,33,0.15,7,Rain,163
2012-10-19,48,42,39,45,41,38,100,91,79,29.63,29.60,29.55,10,9,1,14,5,18,0.19,7,Rain,99
2012-10-20,53,46,39,45,42,39,100,91,61,29.86,29.68,29.57,10,5,0,7,3,,0.01,6,Fog-Rain,345
2012-10-21,57,48,39,46,42,37,100,87,47,30.06,29.97,29.84,10,5,0,14,5,,0.00,4,Fog,249
2012-10-22,66,52,37,51,45,36,93,79,54,30.07,30.03,29.98,10,10,10,5,1,,0.00,4,,55
2012-10-23,55,52,48,50,49,46,100,93,77,30.04,30.00,29.96,10,6,1,10,7,17,0.03,8,Rain,73
2012-10-24,64,56,48,61,54,48,100,95,82,30.03,29.98,29.91,10,5,0,12,7,,0.02,8,Fog-Rain,154
2012-10-25,75,66,52,60,57,50,96,77,53,29.89,29.76,29.64,10,9,5,22,13,38,0.02,1,Rain,190
2012-10-26,46,42,35,46,34,27,100,78,53,30.30,30.08,29.76,10,9,2,16,10,28,0.17,6,Rain,284
2012-10-27,44,35,27,31,27,24,92,68,47,30.32,30.29,30.25,10,10,10,8,2,,0.00,6,,347
2012-10-28,44,38,32,30,26,21,82,66,42,30.36,30.32,30.28,10,10,10,10,5,17,0.00,1,,23
2012-10-29,41,36,32,28,22,16,79,59,42,30.28,30.21,30.01,10,10,10,12,6,29,0.00,0,,8
2012-10-30,35,32,30,32,29,20,93,88,56,29.99,29.73,29.64,10,5,2,13,10,29,0.09,8,Rain-Snow,360
2012-10-31,37,34,32,34,32,30,96,93,86,29.68,29.65,29.59,10,6,2,10,7,21,0.00,8,Rain-Snow,327